World > North America > United States > Missouri

Hourly Freeburg, MO Regional Weather

Feedback E-mail the Weather

Quick WX

Freeburg, MO Weather Maps

°F °C°F °C
Freeburg Weather Map
UTC Time: 7/3/2022, 14:41
Your Time:

Freeburg, MO Regional Weather

Expires:202207031500;;611794
ASUS43 KEAX 031415
RWREAX

WEATHER ROUNDUP FOR EASTERN KANSAS AND NORTHWEST MISSOURI
NATIONAL WEATHER SERVICE KANSAS CITY/PLEASANT HILL MO
900 AM CDT SUN JUL 03 2022


MOZ041-047>049-056>058-063>065-088>090-097-031500-
...EASTERN AND SOUTHERN MISSOURI...
  
CITY           SKY/WX    TMP DP  RH WIND       PRES   REMARKS
ST. LOUIS INTL PTSUNNY   77  64  64 E8        30.11R                  
SPIRIT OF STL  PTSUNNY   75  67  76 E6        30.09R                  
COLUMBIA       CLOUDY    74  70  87 SE9       30.09S                  
JEFFERSON CITY CLOUDY    76  69  79 E6        30.08R                  
MEXICO         SUNNY     75  68  78 SE6       30.10S                  
HANNIBAL       SUNNY     79  57  47 E5        30.12R                  
ROLLA          PTSUNNY   77  72  84 SE9       30.10S                  
LEBANON        CLOUDY    75  70  83 S8        30.10R                  
SPRINGFIELD    MOSUNNY   80  72  76 S10       30.06R                  
BRANSON        MOSUNNY   77  75  94 SE6       30.09R                  
JOPLIN         MOSUNNY   82  74  76 S9        30.04S                  
WEST PLAINS    CLOUDY    75  72  90 SE8       30.10S                  
SIKESTON       MOSUNNY   81  73  78 E6        30.07R                  

$$


SKY/WX - Weather  TMP - Temperature  DP - Dew Point  RH - Humidity
WIND - Wind Direction/Speed PRES - Barometric Pressure VSB - Visibility
WCI - Wind Chill Index E13G22 Wind - East Wind 13 mph/Gusts of 22 mph

Trending Headlines

Freeburg Radar Loop



Freeburg Quick Facts


National Two Day Weather Forecast


E-mail the Freeburg Weather Forecast

Voice your opinion or tell us about page issues...